Hourly Data Report for March 19, 2012

BAGOTVILLE A
QUEBEC

48°20'00.000" N
71°00'00.000" W
159.10 m
7060400
71727
YBG

Download Data

Hourly Data (March 2012)
Hourly Data Report for March 19, 2012
TIME
LST
Temp Definition
°C
Dew Point Definition
°C
Rel Hum Definition
%
Precip. Amount Definition
mm

Wind Dir Definition
10's deg

Wind Spd Definition
km/h
Visibility Definition
km
Stn Press Definition
kPa
Hmdx Definition


Wind Chill Definition


Weather Definition


00:00 6.0 5.8 99   27 7 0.8 100.03     Fog
01:00 6.1 5.9 99   27 9 1.0 100.07     Fog
02:00 4.3 4.3 100     0 0.2 100.10     Fog
03:00 3.5 3.5 100     0 0.2 100.13     Fog
04:00 4.6 4.6 100     0 0.2 100.24     Fog
05:00 4.0 4.0 100   5 4 0.2 100.29     Fog
06:00 2.9 2.9 100     0 0.2 100.36     Fog
07:00 3.6 3.4 99   8 11 0.2 100.43     Fog
08:00 2.8 2.6 99   10 7 0.0 100.45     Fog
09:00 3.4 2.0 91   9 20 24.1 100.49     Mostly Cloudy
10:00 3.5 -0.6 74   9 24 32.2 100.56     Mostly Cloudy
11:00 3.3 -1.4 71   9 19 32.2 100.60     Mostly Cloudy
12:00 3.4 -2.1 67   9 19 40.2 100.58     Cloudy
13:00 3.7 -2.6 63   9 17 40.2 100.53     Cloudy
14:00 3.6 -3.1 62   10 13 40.2 100.48     Cloudy
15:00 4.0 -2.5 63   11 13 40.2 100.42     Mostly Cloudy
16:00 4.5 -2.8 59   10 15 40.2 100.36     Mostly Cloudy
17:00 3.9 -2.4 63   10 11 40.2 100.34     Mostly Cloudy
18:00 3.0 -3.2 64   10 15 40.2 100.31     Mostly Cloudy
19:00 2.5 -2.6 69   10 13 24.1 100.31     Mainly Clear
20:00 2.6 -3.1 66   9 20 24.1 100.33     Mostly Cloudy
21:00 1.6 -2.5 74   12 9 24.1 100.30     Mainly Clear
22:00 1.5 -2.4 75   9 13 24.1 100.27     Mostly Cloudy
23:00 1.5 -2.4 75   11 7 24.1 100.25     Mostly Cloudy

Notes on Data Quality.

Legend

  • E = Estimated
  • M = Missing
  • NA = Not Available*
  • [empty] = Indicates an unobserved value
Date modified: